Location: Tel Aviv
(32.0670°N, 34.7670°E)
Time: 02:48:39
(UTC+03:00)

Tiros 1 - Pass Details

Date: 21 January 2022
Orbit: 629 x 663 km, 48.4° (Epoch: 26 May)

Event Time Altitude Azimuth Distance (km) Brightness Sun altitude
Rises 21:42:48 0° 201° (SSW) 2,976 - -58.5°
Reaches altitude 10° 21:45:25 10° 189° (S) 2,069 - -59.1°
Maximum altitude 21:49:27 27° 131° (SE) 1,250 - -59.9°
Drops below altitude 10° 21:53:30 10° 74° (ENE) 2,075 - -60.7°
Sets 21:56:07 0° 62° (ENE) 2,986 - -61.2°
